Simultaneous Nadir Overpasses (SNOs) Predictions

Prediction of SNOs between METOP-B and NOAA-19 Satellite Orbit:

Table of predicted SNOs for the next 14.0 days since TLE Epoch: 9/27/2014
Index Date (METOP-B) Time (METOP-B) Lat,Lon (METOP-B) SZA (METOP-B ) Date (NOAA-19) Time (NOAA-19) Lat,Lon (NOAA-19) SZA (NOAA-19 ) Distance(km) Time Diff (sec)
1 10/04/2014 18:37:10 74.94,-102.33 79.39 10/04/2014 18:36:04 74.97,-105.58 79.45 94.08 66
2 10/04/2014 19:28:02 -74.42, 63.60 101.12 10/04/2014 19:26:48 -74.43, 63.22 101.10 11.40 74
3 10/04/2014 20:18:44 74.33,-129.29 78.81 10/04/2014 20:17:54 74.34,-129.30 78.82 0.82 50
4 10/04/2014 21:09:25 -74.34, 38.07 101.17 10/04/2014 21:08:49 -74.32, 38.01 101.19 3.22 36
5 10/04/2014 22:00:06 74.31,-154.69 78.81 10/04/2014 21:59:57 74.32,-154.77 78.83 2.54 9
6 10/04/2014 22:50:48 -74.27, 12.54 101.21 10/04/2014 22:50:52 -74.30, 12.55 101.18 3.23 4
7 10/04/2014 23:41:28 74.28, 179.90 78.82 10/04/2014 23:41:59 74.25, 179.90 78.79 3.47 31
8 10/05/2014 00:32:10 -74.25, -12.86 101.21 10/05/2014 00:32:54 -74.23, -12.78 101.22 2.66 44
9 10/05/2014 01:22:51 74.21, 154.38 78.77 10/05/2014 01:24:02 74.23, 154.43 78.79 3.06 71
10 10/05/2014 02:13:40 -73.83, -39.22 101.59 10/05/2014 02:14:49 -73.83, -37.26 101.61 60.73 69




NCC Satellite Simultaneous Nadir Overpasses (SNOs) Prediction Service
